Beauty, KY

10:49 AM EDT on September 26, 2016 (GMT -0400)
Prestonsburg

Weather History for KK22 - July, 2013

Change the Weather History Date:

Wednesday, July 3, 2013

  Actual Average (KJKL) Record (KJKL)
Temperature  
Mean Temperature 76 °F 75 °F  
Max Temperature 83 °F 85 °F 94 °F (2012)
Min Temperature 68 °F 66 °F 56 °F (2009)
Degree Days  
Heating Degree Days 0 0  
Month to date heating degree days 0  
Since 1 June heating degree days 12  
Since 1 July heating degree days 0  
Cooling Degree Days 10 10  
Month to date cooling degree days 30  
Year to date cooling degree days 389  
Since 1 June cooling degree days 253  
Growing Degree Days 26 (Base 50)    
Moisture  
Dew Point 68 °F    
Average Humidity 82    
Maximum Humidity 94    
Minimum Humidity 59    
Precipitation  
Precipitation 0.00 in 0.14 in 0.89 in (1994)
Month to date precipitation 0.44  
Year to date precipitation 25.65  
Snow  
Snow 0.00 in 0.00 in - ()
Month to date snowfall 0.0  
Since 1 June snowfall 0.0  
Since 1 July snowfall 0.0  
Snow Depth -    
Sea Level Pressure  
Sea Level Pressure 30.15 in    
Wind  
Wind Speed 5 mph (SSE)    
Max Wind Speed 10 mph    
Max Gust Speed 16 mph    
Visibility 10 miles    
Events Rain    
T = Trace of Precipitation, MM = Missing Value Source: NWS Daily Summary

Daily Weather History Graph

Daily Weather History Graph

Search for Another Location

Airport or City:

Trip Planner

Search our weather history database for the weather conditions in past years. The results will help you decide how hot, cold, wet, or windy it might be!

Date:

Astronomy

Jul. 03, 2013 Rise Set
Actual Time 6:13 AM EDT 8:56 PM EDT
Civil Twilight 5:42 AM EDT 9:27 PM EDT
Nautical Twilight 5:03 AM EDT 10:05 PM EDT
Astronomical Twilight 4:19 AM EDT 10:49 PM EDT
Moon 2:48 AM EDT (7/3) 5:07 PM EDT (7/3)
Length of Visible Light 15h 44m
Length of Day
14h 42m
Waning Crescent, 18% of the Moon is Illuminated
Jul 3
Waning Crescent
Jul 8
New
Jul 15
First Quarter
Jul 22
Full
Jul 29
Last Quarter

Hourly Weather History & Observations

Time (EDT) Temp. Heat Index Dew Point Humidity Pressure Visibility Wind Dir Wind Speed Gust Speed Precip Events Conditions
12:15 AM 70.7 °F - 67.6 °F 90% 30.09 in 10.0 mi SE 4.6 mph - N/A   Clear
12:35 AM 70.2 °F - 68.0 °F 93% 30.10 in 10.0 mi SE 4.6 mph - N/A   Clear
12:55 AM 70.5 °F - 67.6 °F 91% 30.10 in 10.0 mi South 3.5 mph - N/A   Mostly Cloudy
1:15 AM 71.2 °F - 67.3 °F 87% 30.09 in 10.0 mi SSE 4.6 mph - N/A   Mostly Cloudy
1:35 AM 71.1 °F - 67.1 °F 87% 30.10 in 10.0 mi South 5.8 mph - N/A   Mostly Cloudy
1:55 AM 71.1 °F - 67.3 °F 88% 30.10 in 10.0 mi South 4.6 mph - N/A   Overcast
2:15 AM 70.7 °F - 67.3 °F 89% 30.09 in 10.0 mi South 5.8 mph - N/A   Overcast
2:35 AM 71.1 °F - 66.7 °F 86% 30.09 in 10.0 mi SSE 3.5 mph - N/A   Overcast
2:55 AM 70.7 °F - 67.1 °F 88% 30.09 in 10.0 mi South 3.5 mph - N/A   Overcast
3:15 AM 71.6 °F - 66.6 °F 84% 30.09 in 10.0 mi Calm Calm - N/A   Overcast
3:35 AM 71.6 °F - 66.4 °F 84% 30.09 in 10.0 mi South 3.5 mph - N/A   Mostly Cloudy
3:55 AM 70.2 °F - 66.6 °F 88% 30.11 in 10.0 mi SSW 3.5 mph - N/A   Mostly Cloudy
4:15 AM 70.3 °F - 66.7 °F 88% 30.11 in 10.0 mi Calm Calm - N/A   Overcast
4:35 AM 69.3 °F - 66.7 °F 92% 30.11 in 10.0 mi Calm Calm - N/A   Overcast
4:55 AM 68.9 °F - 67.1 °F 94% 30.11 in 10.0 mi Calm Calm - N/A   Scattered Clouds
5:15 AM 69.3 °F - 66.6 °F 91% 30.11 in 10.0 mi Calm Calm - N/A   Clear
5:35 AM 68.9 °F - 66.4 °F 92% 30.11 in 10.0 mi Calm Calm - N/A   Clear
5:55 AM 68.9 °F - 66.2 °F 91% 30.12 in 10.0 mi Calm Calm - N/A   Clear
6:15 AM 68.9 °F - 66.2 °F 91% 30.12 in 10.0 mi SSE 4.6 mph - N/A   Clear
6:35 AM 69.8 °F - 66.2 °F 88% 30.13 in 10.0 mi SSE 4.6 mph - N/A   Clear
6:55 AM 69.8 °F - 66.2 °F 88% 30.13 in 10.0 mi Calm Calm - N/A   Scattered Clouds
7:15 AM 70.3 °F - 66.2 °F 87% 30.14 in 10.0 mi SSE 3.5 mph - N/A   Scattered Clouds
7:35 AM 70.7 °F - 66.4 °F 86% 30.15 in 10.0 mi SSE 5.8 mph - N/A   Clear
7:55 AM 71.6 °F - 66.6 °F 84% 30.15 in 10.0 mi SE 3.5 mph - N/A   Clear
8:15 AM 73.4 °F - 67.8 °F 83% 30.16 in 10.0 mi SSE 3.5 mph - N/A   Clear
8:35 AM 73.6 °F - 67.3 °F 81% 30.17 in 10.0 mi SE 3.5 mph - N/A   Clear
8:55 AM 74.3 °F - 67.3 °F 79% 30.17 in 10.0 mi South 4.6 mph - N/A   Scattered Clouds
9:15 AM 75.0 °F - 67.1 °F 76% 30.18 in 10.0 mi SSE 4.6 mph - N/A   Mostly Cloudy
9:35 AM 75.4 °F - 67.6 °F 77% 30.18 in 10.0 mi South 3.5 mph - N/A   Overcast
9:55 AM 76.3 °F - 67.6 °F 74% 30.18 in 10.0 mi South 4.6 mph - N/A   Mostly Cloudy
10:15 AM 77.9 °F - 68.4 °F 72% 30.18 in 10.0 mi SSE 5.8 mph - N/A   Mostly Cloudy
10:35 AM 77.2 °F - 68.2 °F 74% 30.19 in 10.0 mi South 5.8 mph - N/A   Overcast
10:55 AM 78.1 °F - 68.2 °F 71% 30.18 in 10.0 mi South 5.8 mph - N/A   Overcast
11:15 AM 78.8 °F - 68.4 °F 70% 30.19 in 10.0 mi South 4.6 mph - N/A   Overcast
11:35 AM 79.5 °F - 68.9 °F 70% 30.19 in 10.0 mi SSE 3.5 mph - N/A   Overcast
11:55 AM 79.7 °F - 68.9 °F 69% 30.19 in 10.0 mi SSE 5.8 mph - N/A   Mostly Cloudy
12:15 PM 79.9 °F - 68.2 °F 67% 30.19 in 10.0 mi South 3.5 mph - N/A   Mostly Cloudy
12:35 PM 82.4 °F 85.8 °F 69.3 °F 64% 30.18 in 10.0 mi South 8.1 mph - N/A   Mostly Cloudy
12:55 PM 83.3 °F 86.2 °F 67.6 °F 59% 30.17 in 10.0 mi SSW 5.8 mph - N/A   Scattered Clouds
1:15 PM 83.7 °F 87.2 °F 68.9 °F 61% 30.17 in 10.0 mi South 4.6 mph - N/A   Scattered Clouds
1:35 PM 82.2 °F 85.1 °F 67.8 °F 62% 30.17 in 10.0 mi SE 3.5 mph - N/A   Mostly Cloudy
1:55 PM 82.6 °F 85.3 °F 67.6 °F 60% 30.16 in 10.0 mi SSE 4.6 mph - N/A   Mostly Cloudy
2:15 PM 82.8 °F 86.2 °F 68.9 °F 63% 30.16 in 10.0 mi SSE 4.6 mph - N/A   Scattered Clouds
2:35 PM 79.7 °F - 69.6 °F 71% 30.16 in 10.0 mi SSE 10.4 mph 16.1 mph N/A Rain Rain
2:55 PM 79.0 °F - 70.2 °F 74% 30.16 in 10.0 mi SSE 8.1 mph - N/A   Mostly Cloudy
3:15 PM 79.7 °F - 69.4 °F 71% 30.15 in 10.0 mi South 8.1 mph - N/A   Clear
3:35 PM 80.2 °F 83.3 °F 69.8 °F 70% 30.14 in 10.0 mi SSE 8.1 mph - N/A   Clear
3:55 PM 79.9 °F - 70.2 °F 72% 30.14 in 10.0 mi South 9.2 mph - N/A   Scattered Clouds
4:15 PM 79.3 °F - 69.8 °F 72% 30.15 in 10.0 mi South 6.9 mph - N/A   Scattered Clouds
4:35 PM 78.8 °F - 68.9 °F 72% 30.15 in 10.0 mi SSE 6.9 mph - N/A   Scattered Clouds
4:55 PM 78.4 °F - 68.2 °F 71% 30.16 in 10.0 mi South 5.8 mph - N/A   Mostly Cloudy
5:15 PM 77.5 °F - 68.7 °F 74% 30.16 in 10.0 mi South 3.5 mph - N/A   Light Drizzle
5:35 PM 76.3 °F - 69.6 °F 80% 30.16 in 10.0 mi SSE 6.9 mph - N/A Rain Light Rain
5:55 PM 75.2 °F - 70.3 °F 85% 30.16 in 10.0 mi SSE 6.9 mph - N/A Rain Light Rain
6:15 PM 74.7 °F - 70.2 °F 86% 30.16 in 10.0 mi SE 5.8 mph - N/A   Scattered Clouds
6:35 PM 74.3 °F - 70.0 °F 86% 30.15 in 10.0 mi SE 6.9 mph - N/A   Light Drizzle
6:55 PM 73.8 °F - 69.3 °F 86% 30.16 in 10.0 mi SE 10.4 mph - N/A Rain Light Rain
7:15 PM 73.4 °F - 69.8 °F 88% 30.16 in 10.0 mi SSE 8.1 mph - N/A Rain Light Rain
7:35 PM 72.9 °F - 69.8 °F 90% 30.17 in 10.0 mi SSE 9.2 mph - N/A Rain Rain
7:55 PM 72.5 °F - 69.4 °F 90% 30.17 in 10.0 mi South 9.2 mph - N/A Rain Rain
8:15 PM 72.1 °F - 69.3 °F 91% 30.17 in 10.0 mi South 10.4 mph - N/A Rain Light Rain
8:35 PM 71.8 °F - 69.1 °F 91% 30.17 in 10.0 mi SSE 8.1 mph - N/A Rain Light Rain
8:55 PM 71.2 °F - 69.3 °F 93% 30.17 in 10.0 mi SSE 8.1 mph - N/A   Light Drizzle
9:15 PM 71.6 °F - 68.9 °F 91% 30.17 in 10.0 mi SSE 4.6 mph - N/A Rain Light Rain
9:35 PM 70.9 °F - 68.5 °F 92% 30.17 in 10.0 mi SSE 6.9 mph - N/A   Light Drizzle
9:55 PM 71.1 °F - 68.2 °F 91% 30.17 in 10.0 mi SSE 6.9 mph - N/A   Mostly Cloudy
10:15 PM 70.7 °F - 67.8 °F 91% 30.17 in 10.0 mi SE 10.4 mph - N/A   Overcast
10:35 PM 70.3 °F - 67.5 °F 91% 30.16 in 10.0 mi SSE 5.8 mph - N/A   Overcast
10:55 PM 70.3 °F - 67.1 °F 89% 30.16 in 10.0 mi SSE 8.1 mph - N/A   Scattered Clouds
11:15 PM 70.2 °F - 66.4 °F 88% 30.16 in 10.0 mi SSE 5.8 mph - N/A   Light Drizzle
11:35 PM 69.8 °F - 66.2 °F 88% 30.16 in 10.0 mi SSE 5.8 mph - N/A   Scattered Clouds
11:55 PM 69.8 °F - 65.8 °F 87% 30.16 in 10.0 mi SSE 3.5 mph - N/A   Scattered Clouds